Flag Weather past 2 weeks in Fürth, Bavaria, Germany

Now
52 °F

Overcast.


Feels Like: 52 °F
Forecast: 45 / 59 °F
Wind: 2 mph from Southeast

Location: Nuernberg

Current Time: Oct 30, 2014 at 3:36:38 PM

Latest Report: Oct 30, 2014 at 3:20 PM


Visibility: N/A

Pressure: 30.27 "Hg

Humidity: 77%

Dew point: 45 °F

Location of FürthLocation

Historic Weather in Fürth — Graph

°F

Fürth temperature yesterday

Maximum temperature yesterday: 52 °F (at 1:20 PM)
Minimum temperature yesterday: 39 °F (at 12:20 AM)
Average temperature yesterday: 46 °F

Past Weeks' High & Low Weather Summary

 TemperatureHumidityPressure
High72 °F (Oct 19, 2:50 PM)100% (Oct 15, 8:50 PM)30.36 "Hg (Oct 15, 8:50 PM)
Low37 °F (Oct 25, 3:20 AM)59% (Oct 24, 1:20 PM)29.56 "Hg (Oct 21, 8:20 PM)
Average50 °F89%30.09 "Hg
* Reported Oct 15 3:20 PM — Oct 30 2:20 PM, Fürth, Weather by CustomWeather, © 2014

Note: Actual official high and low records may vary slightly from our data, if they occured in-between our weather recording intervals... More about our weather records

Advertising

Fürth weather history for previous 24 hours

 ConditionsComfort  
Time TempWeatherWind HumidityBarometerVisibility
2:20 PM
Oct 30
52 °FBroken clouds.1 mph77%30.27 "HgN/A
1:50 PM50 °FPartly sunny.2 mph82%30.27 "Hg6 mi
1:20 PM50 °FPartly sunny.2 mph82%30.27 "Hg6 mi
12:50 PM50 °FPartly sunny.1 mph82%30.27 "Hg6 mi
12:20 PM50 °FOvercast.2 mph76%30.27 "Hg6 mi
11:50 AM48 °FOvercast.No wind82%30.27 "Hg6 mi
11:20 AM48 °FOvercast.2 mph82%30.27 "Hg6 mi
10:50 AM46 °FOvercast.2 mph82%30.27 "Hg6 mi
10:20 AM46 °FPartly sunny.2 mph82%30.27 "Hg6 mi
9:50 AM46 °FPartly sunny.1 mph82%30.27 "Hg6 mi
9:20 AM45 °FPartly sunny.1 mph93%30.27 "Hg5 mi
8:50 AM45 °FPartly sunny.1 mph93%30.24 "Hg5 mi
8:20 AM45 °FPartly sunny.1 mph93%30.24 "Hg5 mi
7:50 AM45 °FBroken clouds.1 mph93%30.24 "Hg5 mi
7:20 AM43 °FBroken clouds.1 mph100%30.24 "Hg4 mi
6:50 AM43 °FPassing clouds.No wind100%30.21 "Hg4 mi
6:20 AM43 °FPassing clouds.1 mph100%30.21 "Hg5 mi
5:50 AM43 °FPassing clouds.No wind93%30.21 "Hg4 mi
5:20 AM43 °FOvercast.1 mph93%30.21 "Hg5 mi
4:50 AM43 °FPassing clouds.1 mph93%30.18 "Hg5 mi
4:20 AM43 °FPassing clouds.1 mph93%30.18 "Hg6 mi
3:50 AM43 °FLight rain. Passing clouds.1 mph93%30.18 "HgN/A
3:20 AM41 °FLight rain. Passing clouds.1 mph100%30.18 "HgN/A
2:50 AM41 °FPartly cloudy.1 mph100%30.18 "HgN/A
2:20 AM41 °FFog.1 mph100%30.18 "HgN/A
1:50 AM39 °FFog.1 mph100%30.18 "HgN/A
1:20 AM39 °FFog.1 mph100%30.15 "HgN/A
12:50 AM41 °FPassing clouds.1 mph93%30.15 "HgN/A
12:20 AM43 °FPassing clouds.1 mph93%30.15 "HgN/A
11:50 PM
Oct 29
43 °FPassing clouds.1 mph93%30.15 "HgN/A
11:20 PM43 °FPassing clouds.1 mph93%30.15 "HgN/A
10:50 PM45 °FPassing clouds.2 mph87%30.15 "HgN/A
10:20 PM46 °FPassing clouds.3 mph82%30.15 "HgN/A
9:50 PM46 °FPassing clouds.5 mph82%30.15 "HgN/A
9:20 PM48 °FOvercast.5 mph76%30.12 "HgN/A
8:50 PM48 °FOvercast.6 mph82%30.12 "HgN/A
8:20 PM48 °FOvercast.5 mph82%30.12 "HgN/A
7:50 PM48 °FOvercast.2 mph87%30.09 "HgN/A
7:20 PM48 °FOvercast.1 mph87%30.09 "HgN/A
6:50 PM48 °FOvercast.1 mph87%30.09 "HgN/A
6:20 PM48 °FOvercast.1 mph82%30.09 "HgN/A
5:50 PM48 °FPassing clouds.1 mph82%30.09 "HgN/A
5:20 PM50 °FPassing clouds.2 mph76%30.07 "HgN/A
4:50 PM50 °FPartly sunny.7 mph76%30.07 "HgN/A
4:20 PM50 °FPartly sunny.5 mph76%30.07 "HgN/A
3:50 PM50 °FPartly sunny.9 mph76%30.07 "HgN/A
3:20 PM52 °FPartly sunny.2 mph77%30.07 "HgN/A
Weather by CustomWeather, © 2014

See weather overviewHow to use our weather pages